2015-07-25, 14:34:04,VALID,917.252,VALID,0,VALID,99.0587,VALID,82.5148,VALID,18.6276,VALID,52,VALID,0.891016,
2015-07-25, 14:35:04,VALID,917.229,VALID,0.2,VALID,99.1501,VALID,85.738,VALID,18.6861,VALID,51,VALID,0.299219,
2015-07-25, 14:36:04,VALID,917.236,VALID,0,VALID,99.2721,VALID,84.019,VALID,18.7251,VALID,319,VALID,0,
2015-07-25, 14:37:04,VALID,917.197,VALID,0,VALID,99.3407,VALID,82.7297,VALID,18.7446,VALID,319,VALID,0,
2015-07-25, 14:38:04,VALID,917.199,VALID,0,VALID,99.4475,VALID,82.085,VALID,18.785,VALID,271,VALID,0,
2015-07-25, 14:39:04,VALID,917.141,VALID,0,VALID,99.4856,VALID,82.6222,VALID,18.824,VALID,271,VALID,0,
2015-07-25, 14:40:04,VALID,917.14,VALID,0,VALID,99.5618,VALID,84.2339,VALID,18.9005,VALID,271,VALID,0,
2015-07-25, 14:41:04,VALID,917.104,VALID,0,VALID,99.6609,VALID,89.0687,VALID,18.8434,VALID,259,VALID,0,
2015-07-25, 14:42:04,VALID,917.055,VALID,0,VALID,99.699,VALID,95.4077,VALID,18.746,VALID,136,VALID,0,
2015-07-25, 14:43:04,VALID,916.985,VALID,0.2,VALID,99.699,VALID,99.9203,VALID,18.746,VALID,140,VALID,0,
2015-07-25, 14:44:04,VALID,916.915,VALID,0,VALID,99.6838,VALID,103.144,VALID,18.8629,VALID,139,VALID,0,
2015-07-25, 14:45:04,VALID,916.844,VALID,0,VALID,99.7295,VALID,104.755,VALID,18.8824,VALID,139,VALID,0,
2015-07-25, 14:46:04,VALID,916.818,VALID,0,VALID,99.7372,VALID,105.937,VALID,18.9409,VALID,139,VALID,0,
2015-07-25, 14:47:04,VALID,916.832,VALID,0,VALID,99.7295,VALID,108.301,VALID,19.0384,VALID,139,VALID,0,
2015-07-25, 14:48:04,VALID,916.832,VALID,0,VALID,99.7372,VALID,111.846,VALID,19.1359,VALID,125,VALID,0,
2015-07-25, 14:49:04,VALID,916.836,VALID,0,VALID,99.7676,VALID,115.392,VALID,19.1164,VALID,137,VALID,0.384766,
2015-07-25, 14:50:04,VALID,916.882,VALID,0,VALID,99.8515,VALID,117.863,VALID,19.0579,VALID,131,VALID,0.697656,
2015-07-25, 14:51:04,VALID,916.913,VALID,0,VALID,99.8058,VALID,123.02,VALID,19.1359,VALID,131,VALID,0,
2015-07-25, 14:52:04,VALID,916.889,VALID,0,VALID,99.8363,VALID,135.268,VALID,19.1359,VALID,131,VALID,0,
2015-07-25, 14:53:04,VALID,916.917,VALID,0,VALID,99.882,VALID,145.475,VALID,19.0579,VALID,131,VALID,0,
2015-07-25, 14:54:04,VALID,916.948,VALID,0,VALID,99.8744,VALID,150.955,VALID,19.0189,VALID,138,VALID,0,
2015-07-25, 14:55:04,VALID,916.981,VALID,0,VALID,99.8363,VALID,185.658,VALID,19.0774,VALID,141,VALID,1.07656,
2015-07-25, 14:56:04,VALID,916.947,VALID,0,VALID,99.8515,VALID,361.217,VALID,19.1164,VALID,144,VALID,1.18008,
2015-07-25, 14:57:04,VALID,916.931,VALID,0,VALID,99.8058,VALID,387.003,VALID,19.2709,VALID,166,VALID,0.938672,
2015-07-25, 14:58:04,VALID,916.951,VALID,0,VALID,99.7524,VALID,387.97,VALID,19.4493,VALID,153,VALID,0.783984,
2015-07-25, 14:59:04,VALID,916.948,VALID,0,VALID,99.8058,VALID,422.351,VALID,19.4478,VALID,164,VALID,0.762109,
2015-07-25, 15:00:04,VALID,916.951,VALID,0,VALID,99.8744,VALID,394.524,VALID,19.4088,VALID,152,VALID,0,
2015-07-25, 15:01:04,VALID,916.987,VALID,0,VALID,99.7753,VALID,477.683,VALID,19.6248,VALID,161,VALID,0,
2015-07-25, 15:02:04,VALID,916.989,VALID,0,VALID,99.8134,VALID,420.31,VALID,19.6233,VALID,168,VALID,0,
2015-07-25, 15:03:04,VALID,916.995,VALID,0,VALID,99.7448,VALID,463.609,VALID,19.8378,VALID,168,VALID,0,
2015-07-25, 15:04:04,VALID,917.015,VALID,0,VALID,99.7295,VALID,167.716,VALID,19.9548,VALID,168,VALID,0,
2015-07-25, 15:05:04,VALID,917.026,VALID,0,VALID,99.7905,VALID,146.013,VALID,19.9158,VALID,168,VALID,0,
2015-07-25, 15:06:04,VALID,917.04,VALID,0,VALID,99.7524,VALID,184.476,VALID,20.0313,VALID,160,VALID,0,
2015-07-25, 15:07:04,VALID,917.041,VALID,0,VALID,99.6838,VALID,188.237,VALID,20.2668,VALID,160,VALID,0,
2015-07-25, 15:08:04,VALID,917.043,VALID,0,VALID,99.6609,VALID,203.494,VALID,20.4228,VALID,177,VALID,0,
2015-07-25, 15:09:04,VALID,917.084,VALID,0,VALID,99.638,VALID,226.056,VALID,20.5399,VALID,179,VALID,0,
2015-07-25, 15:10:04,VALID,917.07,VALID,0,VALID,99.699,VALID,458.774,VALID,20.4423,VALID,179,VALID,0,
2015-07-25, 15:11:04,VALID,917.079,VALID,0,VALID,99.7143,VALID,438.897,VALID,20.4423,VALID,180,VALID,0,
2015-07-25, 15:12:04,VALID,917.078,VALID,0,VALID,99.7524,VALID,241.313,VALID,20.3838,VALID,218,VALID,0,
2015-07-25, 15:13:04,VALID,917.068,VALID,0,VALID,99.76,VALID,245.61,VALID,20.4423,VALID,280,VALID,0,
2015-07-25, 15:14:04,VALID,917.027,VALID,0,VALID,99.6914,VALID,322.968,VALID,20.5383,VALID,280,VALID,0,
2015-07-25, 15:15:04,VALID,917.035,VALID,0,VALID,99.8439,VALID,212.733,VALID,20.4033,VALID,279,VALID,0,
2015-07-25, 15:16:04,VALID,916.994,VALID,0,VALID,99.8439,VALID,191.353,VALID,20.3253,VALID,314,VALID,0,
2015-07-25, 15:17:04,VALID,917.038,VALID,0,VALID,99.7524,VALID,407.095,VALID,20.4423,VALID,354,VALID,0.220313,
2015-07-25, 15:18:04,VALID,916.997,VALID,0,VALID,99.7676,VALID,413.326,VALID,20.4813,VALID,4,VALID,1.16797,
2015-07-25, 15:19:04,VALID,916.972,VALID,0,VALID,99.7524,VALID,481.766,VALID,20.4798,VALID,352,VALID,0.748438,
2015-07-25, 15:20:04,VALID,916.962,VALID,0,VALID,99.7981,VALID,463.394,VALID,20.4018,VALID,4,VALID,0.603125,
2015-07-25, 15:21:04,VALID,916.962,VALID,0,VALID,99.7981,VALID,521.627,VALID,20.4603,VALID,20,VALID,1.21758,
2015-07-25, 15:22:04,VALID,916.96,VALID,0,VALID,99.7753,VALID,514.106,VALID,20.5968,VALID,360,VALID,0.405078,
2015-07-25, 15:23:04,VALID,916.951,VALID,0,VALID,99.8972,VALID,510.023,VALID,20.4798,VALID,359,VALID,1.71719,
2015-07-25, 15:24:04,VALID,916.933,VALID,0,VALID,99.8591,VALID,510.131,VALID,20.5188,VALID,339,VALID,2.33828,
2015-07-25, 15:25:04,VALID,916.887,VALID,0,VALID,99.7981,VALID,510.775,VALID,20.5383,VALID,8,VALID,2.29414,
2015-07-25, 15:26:04,VALID,916.855,VALID,0,VALID,99.7981,VALID,516.577,VALID,20.4408,VALID,6,VALID,2.63672,
2015-07-25, 15:27:04,VALID,916.866,VALID,0,VALID,99.5999,VALID,519.263,VALID,20.5968,VALID,20,VALID,2.28711,
2015-07-25, 15:28:04,VALID,916.867,VALID,0,VALID,99.4932,VALID,512.172,VALID,20.6959,VALID,11,VALID,2.17344,
2015-07-25, 15:29:04,VALID,916.833,VALID,0,VALID,99.3789,VALID,489.932,VALID,20.8699,VALID,11,VALID,1.23789,
2015-07-25, 15:30:04,VALID,916.827,VALID,0,VALID,99.2797,VALID,491.651,VALID,20.8894,VALID,25,VALID,1.36328,
2015-07-25, 15:31:04,VALID,916.809,VALID,0,VALID,99.0358,VALID,485.204,VALID,20.8894,VALID,19,VALID,2.07383,
2015-07-25, 15:32:04,VALID,916.83,VALID,0,VALID,98.9672,VALID,159.443,VALID,21.1055,VALID,1,VALID,0,
2015-07-25, 15:33:04,VALID,916.83,VALID,0,VALID,98.6318,VALID,143.756,VALID,21.0844,VALID,340,VALID,0.194922,
2015-07-25, 15:34:04,VALID,916.835,VALID,0,VALID,98.06,VALID,139.351,VALID,21.0649,VALID,28,VALID,1.58555,
2015-07-25, 15:35:04,VALID,916.8,VALID,0,VALID,97.5645,VALID,139.244,VALID,21.0454,VALID,9,VALID,0.0632813,
2015-07-25, 15:36:04,VALID,916.765,VALID,0,VALID,97.4273,VALID,158.153,VALID,21.0259,VALID,356,VALID,0,
2015-07-25, 15:37:04,VALID,916.726,VALID,0,VALID,97.2519,VALID,431.913,VALID,21.0064,VALID,9,VALID,0,
2015-07-25, 15:38:04,VALID,916.681,VALID,0,VALID,97.6788,VALID,394.846,VALID,21.1624,VALID,13,VALID,0,
2015-07-25, 15:39:04,VALID,916.616,VALID,0,VALID,97.6102,VALID,447.278,VALID,21.2811,VALID,17,VALID,0,
2015-07-25, 15:40:04,VALID,916.556,VALID,0,VALID,97.4959,VALID,489.18,VALID,21.377,VALID,17,VALID,0,
2015-07-25, 15:41:04,VALID,916.518,VALID,0,VALID,97.1986,VALID,450.178,VALID,21.5331,VALID,345,VALID,0,
2015-07-25, 15:42:04,VALID,916.487,VALID,0,VALID,97.2062,VALID,427.723,VALID,21.6891,VALID,6,VALID,0,
2015-07-25, 15:43:04,VALID,916.451,VALID,0,VALID,97.2062,VALID,467.047,VALID,21.8062,VALID,8,VALID,0,
2015-07-25, 15:44:04,VALID,916.429,VALID,0,VALID,96.3981,VALID,440.616,VALID,21.8647,VALID,18,VALID,0,
2015-07-25, 15:45:04,VALID,916.422,VALID,0,VALID,93.303,VALID,419.773,VALID,21.707,VALID,18,VALID,0,
2015-07-25, 15:46:04,VALID,916.399,VALID,0,VALID,96.1694,VALID,414.615,VALID,21.8631,VALID,29,VALID,0,
2015-07-25, 15:47:04,VALID,916.426,VALID,0,VALID,91.8088,VALID,363.259,VALID,21.9021,VALID,8,VALID,0,
2015-07-25, 15:48:04,VALID,916.482,VALID,0,VALID,85.9921,VALID,247.652,VALID,21.7867,VALID,26,VALID,0,
2015-07-25, 15:49:04,VALID,916.499,VALID,0,VALID,88.668,VALID,145.69,VALID,21.7867,VALID,25,VALID,0,
2015-07-25, 15:50:04,VALID,916.557,VALID,0,VALID,85.8778,VALID,93.3664,VALID,21.7672,VALID,2,VALID,0,
